Theta_e
324 325 330 332 334 333 335 334 329 329 330 329 327 328 334 335 340 335 333 333 334 335 337 336 335 334 332 331 329 328 329 328 328 326 327 329 328 328 328 327 328 332 331 330 329 328 327 330 330
325 326 330 329 336 335 331 329 330 331 329 326 327 329 332 337 333 329 331 334 333 334 338 337 335 333 332 329 329 329 328 328 328 328 330 328 329 330 329 328 327 332 331 330 329 329 328 329 330
327 328 327 333 332 337 333 328 331 332 329 329 330 331 334 335 330 329 331 334 333 334 338 337 334 333 331 328 328 328 328 328 328 329 329 328 328 328 328 329 330 331 329 329 328 329 329 329 330
327 324 323 331 335 331 331 328 328 333 332 331 330 335 331 330 330 330 331 333 333 336 338 337 335 333 330 328 327 329 328 327 326 326 329 329 330 328 325 328 327 330 329 328 327 328 329 328 328
325 321 328 330 330 328 325 324 327 328 332 332 332 335 333 328 329 330 330 332 334 338 337 337 335 332 327 328 327 327 329 327 327 326 328 332 330 327 324 327 330 330 328 327 323 322 327 327 327
323 319 323 330 326 324 324 322 326 326 327 333 333 335 333 328 329 330 328 333 338 338 336 337 335 330 328 328 328 328 329 327 326 325 328 330 328 327 329 328 329 329 327 323 318 321 326 326 327
324 322 323 322 321 320 321 322 325 326 325 331 333 335 331 327 329 330 326 332 337 338 335 337 335 330 328 328 328 328 328 326 326 325 326 327 324 326 326 327 329 327 326 319 317 320 325 325 326
320 318 324 322 320 319 317 322 323 324 327 329 333 335 335 328 328 328 326 328 334 336 333 336 335 330 329 328 327 326 328 326 323 322 325 324 327 324 326 327 327 326 323 318 317 317 323 324 324
321 322 323 323 323 322 318 321 322 322 324 325 333 332 331 328 328 331 335 333 334 335 333 334 334 330 327 327 328 327 327 326 325 323 323 325 324 322 325 327 326 326 321 318 317 317 322 321 322
321 322 324 322 320 320 319 319 320 322 322 322 331 329 329 330 332 333 336 335 332 335 334 333 334 330 327 327 328 329 327 326 325 324 322 324 321 325 326 326 325 324 321 318 317 317 317 319 321
319 322 321 322 319 319 320 319 318 320 322 325 333 330 328 330 332 332 333 337 335 333 334 334 334 331 327 328 328 329 327 326 324 323 321 322 324 326 326 325 323 323 321 318 317 318 318 318 318
317 317 320 321 320 321 323 320 318 317 318 320 327 329 329 328 331 331 331 335 335 336 335 335 334 332 328 327 328 331 328 326 325 320 324 323 325 326 325 324 322 322 320 319 319 319 318 318 317
314 314 314 315 320 323 323 323 322 320 318 318 324 329 329 328 329 331 331 333 338 336 337 336 334 330 327 327 328 331 330 326 326 321 324 323 324 324 324 323 321 319 319 319 319 318 318 317 317
310 309 310 312 314 318 323 322 320 320 317 317 321 323 327 328 328 331 331 332 334 337 336 336 333 329 327 328 327 330 330 326 326 323 324 324 324 324 322 322 320 321 320 319 319 318 318 317 316
308 307 307 306 310 316 319 320 321 318 317 318 317 317 321 327 330 329 330 331 333 333 336 335 334 330 329 329 327 329 329 326 327 325 324 325 325 323 323 322 320 321 320 318 318 317 316 315 314
306 306 307 308 306 307 317 319 315 314 316 317 316 315 317 320 329 331 331 331 333 332 335 335 333 331 330 331 330 330 330 328 327 326 324 324 324 324 325 323 322 321 319 318 317 316 315 314 313
306 305 308 308 307 308 313 315 314 313 312 311 311 315 315 319 323 330 331 331 331 332 332 333 332 330 329 329 329 329 329 328 327 326 325 324 324 324 324 324 322 320 319 318 317 315 314 312 311
311 311 309 307 305 307 305 304 305 306 306 307 306 308 313 315 322 328 331 331 331 332 332 332 332 331 328 328 327 327 328 328 328 326 325 323 323 325 323 322 322 321 320 318 317 315 313 312 309
308 309 310 309 309 308 308 305 306 306 306 304 305 305 306 309 312 325 328 330 331 331 332 332 331 331 329 327 326 326 326 327 327 326 324 323 323 324 323 322 322 322 321 319 317 315 313 310 308
309 309 309 309 309 309 308 308 307 307 308 308 306 305 307 310 313 315 325 329 330 330 331 331 331 330 330 328 326 325 325 326 326 326 324 322 322 323 323 323 323 322 322 320 318 316 312 310 308
309 310 310 310 309 307 307 306 307 307 307 307 307 306 305 309 312 311 322 327 329 329 329 330 330 330 329 329 327 325 325 325 325 325 325 323 322 322 325 323 323 323 322 321 319 317 315 311 307
311 309 309 310 308 310 307 308 306 307 307 307 306 306 306 304 305 305 314 326 329 329 329 329 329 329 329 328 327 326 325 324 325 325 325 323 322 322 323 325 323 323 322 321 319 318 316 313 307
310 309 309 309 311 310 308 304 306 306 306 305 305 305 304 304 302 303 304 310 320 328 328 329 328 328 328 328 327 327 326 325 324 325 325 324 322 322 323 325 324 322 322 322 320 318 317 314 311
309 311 308 310 310 303 307 307 306 306 306 308 307 307 307 306 306 305 307 308 308 321 328 328 328 328 327 327 327 327 326 326 325 324 325 325 324 322 323 324 325 323 322 322 321 319 318 316 313
310 309 297 303 307 299 307 307 306 308 307 305 305 304 304 306 307 308 308 310 311 311 324 328 328 327 327 327 327 327 326 326 326 325 325 325 324 324 322 323 324 324 323 322 321 320 318 317 315
313 312 309 309 308 307 306 308 309 306 305 304 303 303 304 304 304 306 307 310 311 312 316 325 327 327 327 326 326 326 326 326 326 326 325 325 325 324 324 323 324 325 324 323 322 320 319 318 317
309 307 310 305 300 305 307 306 307 306 305 304 303 302 302 303 304 305 304 304 306 307 310 313 321 327 327 327 326 326 325 325 325 325 326 325 325 325 324 324 324 324 324 324 323 322 320 318 316
310 309 311 303 301 304 305 305 307 306 305 302 301 300 301 302 302 303 303 302 303 304 309 314 320 328 328 328 327 326 326 325 326 326 326 325 325 325 324 324 324 323 324 324 323 322 321 320 317
311 310 310 309 309 308 302 304 306 306 303 302 300 301 300 299 300 300 300 300 300 302 307 307 318 326 328 327 327 326 326 326 326 326 327 326 326 324 324 323 323 323 323 323 323 322 321 320 319
309 312 313 310 309 307 308 305 305 302 301 301 301 300 297 298 297 297 296 297 297 299 302 304 306 311 318 325 327 328 327 327 327 327 327 327 328 327 327 324 322 322 323 323 322 322 322 321 319
Wind_Speed
13 11 12 4 3 3 3 7 3 6 3 1 2 6 8 3 3 3 18 21 32 38 33 29 27 26 24 25 24 22 20 20 19 18 18 17 17 17 17 17 16 18 20 19 18 18 17 19 20
12 12 4 1 4 1 5 6 12 4 5 5 6 4 4 3 3 7 16 30 34 38 35 30 29 28 26 27 26 23 21 20 19 17 18 16 16 15 17 16 15 20 21 19 19 19 19 19 19
12 10 2 4 4 5 5 2 6 4 3 3 4 5 4 3 3 14 24 36 35 36 34 31 30 29 27 27 28 24 21 20 18 17 16 16 17 16 17 16 18 21 20 19 19 19 20 20 19
6 5 3 2 6 7 12 5 2 3 3 5 5 7 4 7 17 11 34 34 33 34 33 32 31 27 28 28 26 25 23 20 20 17 14 17 17 17 17 15 17 22 20 19 19 19 20 20 18
2 1 2 3 7 8 9 4 3 4 1 3 3 6 4 4 17 30 36 32 32 30 31 32 30 27 28 29 27 24 23 20 20 19 14 19 19 16 16 14 20 21 20 19 20 21 21 21 22
2 2 1 7 5 9 9 9 6 2 1 4 3 7 1 16 25 29 33 31 32 33 32 31 29 26 28 27 26 24 22 21 19 18 16 17 16 16 16 17 20 21 20 20 20 22 22 21 21
4 2 5 3 6 6 9 9 7 6 3 1 1 4 2 5 24 25 28 32 31 31 33 31 29 26 28 27 25 25 22 22 21 17 19 16 16 17 16 18 21 20 19 20 21 22 23 20 20
3 3 2 4 7 9 5 5 5 7 3 2 3 5 5 6 21 28 23 31 32 31 33 32 29 27 27 27 25 24 23 21 20 17 19 17 18 17 17 19 20 19 19 20 21 22 23 22 20
2 2 3 5 5 7 7 4 3 4 5 3 4 4 8 30 23 24 25 28 30 30 31 32 30 29 28 28 25 24 22 21 21 20 19 19 17 16 16 20 19 19 18 20 21 22 22 21 19
3 4 5 5 3 4 6 7 3 4 4 6 6 5 23 24 28 23 18 19 22 27 31 31 33 31 29 29 27 25 23 20 20 20 19 18 18 18 19 19 18 16 17 21 21 20 19 19 18
3 4 7 12 4 7 8 6 6 4 4 3 6 9 13 16 17 19 19 21 23 27 29 31 32 31 29 30 30 28 26 23 19 19 19 19 20 18 20 22 20 19 17 21 21 17 14 13 16
4 5 7 10 9 3 4 8 7 4 4 7 8 15 9 9 13 17 18 21 26 28 30 32 29 30 28 29 31 31 29 25 20 20 23 21 21 21 21 21 20 19 18 21 18 14 13 11 13
3 7 9 11 7 5 3 5 3 8 5 6 5 10 11 9 13 20 24 23 24 31 29 32 32 31 29 28 33 30 31 26 21 21 24 21 23 21 21 21 20 18 17 18 16 14 13 13 15
5 6 8 6 8 5 3 5 3 4 8 6 7 8 8 9 16 19 22 23 27 27 33 32 31 32 34 32 33 31 32 25 24 21 24 26 23 21 22 21 21 18 15 13 15 15 16 15 17
5 6 7 6 3 3 4 6 5 8 7 10 8 8 8 11 21 21 26 25 31 30 27 35 34 29 34 34 31 33 31 27 26 24 26 26 21 23 22 22 22 20 18 15 14 14 16 17 16
2 1 4 5 4 6 7 8 6 10 7 11 13 10 9 10 20 27 30 29 34 33 34 32 30 31 30 31 30 30 31 31 30 28 30 26 23 24 23 23 21 22 19 18 16 19 19 17 16
4 2 3 6 4 2 5 3 11 11 9 12 11 15 13 9 10 24 31 30 30 38 37 36 31 32 34 30 29 25 28 32 32 29 30 29 27 27 23 22 20 21 21 20 19 21 20 18 16
4 4 5 5 7 9 7 7 9 12 5 8 8 8 11 9 13 26 33 35 32 35 39 38 37 31 31 30 30 29 26 28 32 30 30 29 30 27 27 24 23 24 24 22 21 23 20 18 18
4 4 8 10 12 7 4 7 9 13 11 9 10 7 7 8 7 22 29 35 36 31 36 40 40 38 32 31 33 33 30 28 32 32 32 31 33 30 29 27 26 26 27 26 24 24 24 22 22
2 3 6 9 7 8 8 14 16 14 17 15 8 8 8 7 6 4 22 27 28 35 38 37 40 40 39 34 30 30 34 29 31 31 33 33 34 35 30 31 31 29 29 28 28 28 29 24 29
4 4 3 5 8 4 9 6 3 5 13 16 15 6 6 6 8 7 10 19 27 27 30 36 40 41 40 38 29 23 30 29 30 32 33 34 34 37 35 34 33 32 31 31 32 33 34 26 33
5 6 6 7 7 3 6 4 8 9 6 2 8 8 11 8 7 8 5 12 18 26 34 36 36 37 40 42 34 30 29 28 30 31 35 36 36 37 42 37 36 35 35 34 35 36 38 34 28
2 3 3 3 5 5 2 4 7 5 9 9 10 9 10 10 9 10 12 12 20 29 30 32 35 36 36 39 39 36 31 32 28 27 33 36 39 39 40 42 41 38 38 37 37 37 41 42 34
6 5 5 1 2 2 3 4 5 3 5 5 13 14 14 13 10 10 21 26 8 23 34 34 33 36 37 38 40 38 37 30 26 29 32 35 39 42 40 43 44 42 41 39 38 38 42 44 40
4 3 3 4 3 5 2 3 6 6 9 10 11 16 17 15 14 12 11 17 24 17 21 34 34 34 37 38 39 38 40 35 36 31 33 30 31 38 44 42 45 47 45 41 39 39 41 44 46
4 2 1 3 2 4 6 4 3 3 5 9 11 11 14 17 15 15 17 16 19 22 19 16 30 33 34 38 39 41 37 34 35 33 31 33 35 39 44 47 45 47 46 46 40 39 42 42 46
3 2 3 0 1 2 3 5 4 16 18 20 19 17 16 16 16 15 19 21 21 23 29 26 21 35 38 41 40 37 36 35 35 36 31 33 36 37 38 43 46 48 47 47 43 40 40 39 43
2 4 1 2 3 4 4 4 5 19 19 20 19 17 17 16 16 15 17 22 24 23 25 28 22 33 37 39 36 36 36 35 33 30 32 32 37 40 38 42 45 45 46 45 44 41 41 39 42
1 1 2 2 2 2 2 4 5 9 12 15 18 15 14 15 14 14 18 23 24 23 19 19 11 12 23 31 31 28 30 33 32 30 33 34 32 35 37 41 44 44 45 45 43 42 41 40 40
3 4 2 2 3 3 2 3 3 10 11 10 12 11 13 12 13 12 19 23 25 24 19 12 16 13 7 7 19 27 28 29 31 34 35 35 38 38 33 36 38 40 43 42 42 42 41 41 39
Wind_Direction
320 318 321 328 42 75 258 261 263 278 64 119 62 78 117 46 81 182 152 158 157 155 154 155 150 147 145 139 136 133 131 125 122 119 118 115 116 118 118 109 111 111 104 99 96 96 101 103 104
316 329 332 77 114 307 270 260 278 252 148 92 59 50 71 104 98 130 130 156 157 156 155 156 151 149 148 144 140 137 133 130 126 124 126 115 119 124 114 119 120 109 103 101 98 98 103 107 107
299 292 67 153 175 194 239 43 25 348 24 113 93 70 80 88 92 140 143 153 155 156 157 157 153 154 152 147 143 140 138 135 130 126 128 127 124 126 124 115 115 112 106 102 101 100 103 108 111
318 355 342 140 226 241 237 290 352 97 325 354 103 84 58 346 145 154 152 152 153 155 161 158 158 158 153 149 144 143 142 140 135 134 134 132 128 124 127 120 124 114 110 107 104 104 105 105 110
278 19 209 203 238 261 260 228 128 320 296 232 117 156 82 45 144 143 147 153 150 158 162 162 161 159 151 150 147 147 147 145 143 138 138 133 130 129 136 132 124 116 114 109 108 111 111 107 109
306 140 177 220 248 247 270 248 193 186 334 356 125 108 129 139 145 146 150 152 157 161 164 163 163 161 155 153 152 150 151 155 150 146 142 130 132 132 132 129 126 121 118 112 111 115 113 111 113
182 89 219 213 225 269 249 284 178 165 48 292 182 71 160 139 148 153 151 157 161 164 163 165 165 164 160 157 156 156 158 155 151 156 149 142 140 138 144 137 130 126 120 117 113 115 113 113 119
164 129 215 223 234 268 265 294 135 99 131 282 118 150 163 192 156 155 160 159 160 164 165 165 166 166 164 161 162 163 164 161 151 151 151 150 147 144 141 139 135 130 128 123 118 116 115 110 116
17 142 221 218 228 257 343 287 12 161 97 60 53 140 151 157 154 139 125 143 150 162 168 166 172 169 168 166 166 170 167 164 160 159 158 155 152 149 146 144 137 131 135 129 124 119 121 105 115
164 180 220 255 256 303 314 31 323 100 65 23 59 51 141 142 146 143 136 142 147 158 167 170 175 172 171 171 171 172 171 173 170 167 164 159 153 150 148 146 143 140 140 135 130 123 123 114 110
272 190 229 273 331 356 324 343 324 69 93 144 143 148 152 142 145 153 163 165 162 170 169 176 175 176 175 176 177 177 179 177 176 170 161 161 159 161 159 153 149 149 149 142 135 127 123 128 122
277 309 265 274 294 274 299 324 337 46 39 145 145 156 152 156 163 165 179 180 183 174 174 182 174 177 178 184 183 181 184 182 182 175 168 174 175 166 166 166 155 158 149 149 143 137 146 146 144
9 346 341 338 353 345 1 308 291 310 313 94 57 156 173 175 169 177 183 191 181 180 177 179 176 180 180 186 188 186 189 190 191 182 180 183 183 178 178 175 166 151 146 157 159 163 174 166 153
318 321 304 319 316 304 332 294 8 294 321 318 167 203 190 183 188 178 188 193 196 186 189 186 180 184 184 189 192 191 195 197 196 188 187 189 190 188 183 182 167 164 166 177 175 180 177 173 169
323 325 330 282 252 263 26 284 245 268 295 287 270 227 225 194 190 182 191 194 198 202 187 188 187 187 191 190 193 196 197 201 196 201 191 188 195 192 191 185 180 169 177 179 185 176 174 173 175
279 312 329 294 214 233 166 247 288 263 246 259 272 262 218 225 192 198 193 199 198 200 197 185 191 194 190 192 195 199 202 202 203 204 193 196 196 196 197 191 187 178 181 183 184 178 176 183 184
12 313 250 314 67 353 165 259 264 253 250 244 256 252 250 222 212 198 198 200 197 201 201 192 189 194 199 194 191 199 203 206 204 204 197 198 198 198 194 196 196 188 187 188 187 183 189 184 184
349 337 338 304 4 359 321 275 291 294 283 266 264 267 254 222 211 203 205 205 200 199 203 204 200 192 197 199 196 201 196 200 201 201 202 204 201 200 200 204 200 198 193 192 192 191 195 195 184
22 333 314 305 302 335 319 275 278 292 301 291 288 298 252 238 231 217 208 204 199 195 193 203 202 204 193 194 196 198 200 197 200 204 207 206 204 202 207 207 205 205 201 202 198 195 190 183 181
330 325 306 295 345 333 303 283 266 261 265 269 272 293 310 303 297 175 218 203 194 197 199 196 203 205 201 198 200 199 202 203 207 208 209 208 208 207 209 212 212 211 203 208 203 199 186 184 189
347 322 338 316 330 302 348 305 355 281 248 256 265 270 270 274 292 298 199 210 196 193 193 195 202 204 204 200 200 196 205 208 210 209 212 213 213 211 212 211 217 215 212 212 207 206 200 192 195
314 13 9 346 2 305 55 292 333 326 344 279 276 268 271 275 279 286 159 210 212 205 204 201 199 203 207 204 201 195 193 201 210 210 213 215 215 215 214 214 215 221 220 218 214 212 212 206 197
325 334 286 292 286 339 301 66 274 310 17 7 21 4 356 331 318 294 291 214 227 235 224 211 203 200 201 204 202 206 204 202 208 208 215 218 217 219 218 218 217 219 223 223 218 216 215 215 213
333 316 330 262 84 356 246 129 283 29 13 12 4 5 2 352 348 347 353 353 311 240 226 223 203 202 201 200 203 207 214 205 201 206 210 214 217 217 221 221 221 221 222 225 221 220 221 220 221
30 14 356 2 1 212 82 100 263 51 35 29 3 351 345 352 355 346 344 345 339 350 256 218 202 198 201 202 204 207 210 211 206 210 208 207 209 214 220 222 222 222 224 221 226 221 227 228 226
332 356 105 306 335 278 318 227 160 23 39 31 11 349 349 345 343 340 337 348 345 342 338 262 213 201 201 203 207 211 212 212 215 214 213 209 212 216 222 222 225 226 227 224 219 224 228 231 232
313 334 339 209 348 11 266 293 207 360 1 360 0 353 339 335 331 334 344 339 337 335 327 316 264 213 201 204 207 208 212 212 214 215 221 211 214 220 223 227 230 229 227 227 220 223 227 226 231
341 339 310 22 28 318 307 318 320 351 339 334 339 339 336 329 326 334 339 338 333 329 328 317 288 221 208 204 204 208 211 211 216 217 216 216 220 224 223 229 231 230 228 226 224 226 228 226 229
340 344 256 265 190 199 296 290 11 328 337 334 338 333 333 330 333 332 337 342 336 330 331 337 352 216 215 206 203 206 212 215 218 220 219 218 222 224 225 231 230 228 228 227 227 230 231 229 232
310 24 302 232 298 218 179 270 343 351 342 343 335 336 339 346 340 346 351 349 341 336 335 6 37 57 75 171 206 207 214 213 215 219 226 229 232 230 229 233 229 228 229 230 228 230 231 232 231